Journée Demi-fond

Compétition Départementale

ANGERS

Le Dimanche 29 Octobre 2017

Bassin de 25m

800 Nage Libre Dames

Séries

Nom Année Temps Pts Club Pays
1 LUCAS Mila 2002 9:29:29 1088 ANGERS NATATION FRA
2 CORABOEUF Coline 2002 9:37:08 1059 ANGERS NATATION FRA
3 MECHIN Lora 2003 9:40:05 1048 ANGERS NATATION FRA
4 CORVAISIER Louise 2002 9:55:14 993 ANGERS NATATION FRA
5 COUSSEAU Solene 2003 9:55:23 993 ANGERS NATATION FRA
6 CULTY Louise 2003 9:58:82 980 ANGERS NATATION FRA
7 VIGET Leïla 2000 10:01:38 971 ANGERS NATATION FRA
8 ALLEGRE Marie 2001 10:07:56 949 ANGERS NATATION FRA
9 PILLET Lola 1999 10:08:75 945 ANGERS NATATION FRA
10 DELAUNAY Maëlys 2003 10:15:15 923 CLUB AQUATIQUE CHOLETAIS FRA
11 BERTRAND Léa 2000 10:16:52 918 ANGERS NATATION FRA
12 CLAUDIC-TCHA Maëllys 2006 10:17:87 913 ANGERS NATATION FRA
13 COVILLON Romance 2003 10:26:75 883 ANGERS NATATION FRA
14 QUIGNON Carla 2003 10:27:41 881 ANGERS NATATION FRA
15 POIROUX Emma 2004 10:28:54 877 ANGERS NATATION FRA
16 RAFOUGILET Doriane 2000 10:37:60 847 CLUB AQUATIQUE CHOLETAIS FRA
17 LABRUGERE Camille 2003 10:40:61 837 ANGERS NATATION FRA
18 MARKOWICZ Keren 2004 10:44:50 824 ANGERS NATATION FRA
19 AMRANDI Sarah 2002 10:49:87 806 CLUB AQUATIQUE CHOLETAIS FRA
20 DEROUET Ilona 2004 10:50:11 806 ANGERS NATATION FRA
21 AUBIN Eleanore 2006 10:58:02 780 ANGERS NATATION FRA
22 BREHERET Lili-Rose 2005 10:59:15 777 ANGERS NATATION FRA
23 CLAUDEL Lélia 2002 11:01:32 770 ES SEGRÉ FRA
24 GODINEAU Jeanne 2004 11:04:36 760 CN BEAUPREAU FRA
25 VIGET Salina 2004 11:09:05 745 ANGERS NATATION FRA
26 KELLOU Mona 2003 11:12:94 733 AS AVRILLÉ NATATION FRA
27 PEIGNE Léane 2004 11:15:33 726 CLUB AQUATIQUE CHOLETAIS FRA
28 DELAIN Céleste 2006 11:21:30 708 ANGERS NATATION FRA
29 LEMERCIER Lexanne 2004 11:31:20 678 CN BEAUPREAU FRA
30 MIOT Charline 1983 11:38:23 657 AS AVRILLÉ NATATION FRA
31 TOURON Axelle 2004 11:40:69 650 CN BEAUPREAU FRA
32 BRIDON Apolline 2003 11:53:68 613 CN BEAUPREAU FRA
33 PREZELIN Alice 2000 11:55:33 608 AS AVRILLÉ NATATION FRA
34 DURAND Elea 2004 11:59:41 597 CN BEAUPREAU FRA
35 BONDU Lilirose 2005 12:18:47 545 CN BEAUPREAU FRA
36 LARDEUX Ilona 2005 12:22:04 536 ES SEGRÉ FRA
37 BURON Louane 2005 12:34:13 504 ES SEGRÉ FRA
38 VAIMATAPAKO Lena 2007 12:59:28 442 ANGERS NATATION FRA
39 LEPRETRE Armelle 2004 12:59:68 441 ES SEGRÉ FRA
40 COIFFARD Angèle 2005 13:06:51 425 CN BEAUPREAU FRA
41 CHOPLAIN Rose 2006 13:07:09 423 ANGERS NATATION FRA
42 JILOT Lilou 2004 13:11:37 413 ES SEGRÉ FRA
43 AGNES Auriane 2005 13:27:15 378 ANGERS NATATION FRA
44 CHALANGE Constance 2007 13:35:15 360 ANGERS NATATION FRA
45 LECHAT Sidney 2006 14:00:97 306 CN BEAUPREAU FRA
SAUMUR NATATION